STARLINK-2622, 48360

Orbit data source: Space-Track

STARLINK-2622, 48360 is a payload satellite owned by SpaceX/Seattle (US) in LEO that was launched on Tue, 04 May 2021 UTC via an FALCON 9 launch vehicle from the Air Force Eastern Test Range (AFETR). Payload-class satellites include a variety of spacecraft equipped with specific instruments for various scientific and technological missions. These include communications satellites like Starlink; space stations such as the ISS; scientific satellites like the Hubble; Earth observation satellites from companies like Planet Labs, Umbra, and HawkEye 360; GPS; miniature CubeSats for education and research; and military/defense satellites.

Loading next visibility...
Identifier
48360, 2021-038H
Orbit
LEO
Country
Flag of USUS
Related business
Manufacturer
SpaceX/Seattle
Mission
Operational Commercial Communications
Bus & Motor
STARLINK, Unknown motor
Mass
260 kg wet, ~248 kg dry
Launch date (UTC)
2021-05-04 (5 years ago)
Launch vehicle
FALCON 9
Launch site
Air Force Eastern Test Range (AFETR)
Object type
Payload
Rocket body
Debris
Shape & HBR
Box + 1 Pan, 10.1 m
Radar Cross Section
13.562 m², Large (>1 m²)

Expand to show TLE details & history
Last TLE update: 2 days ago

TLE from 2 days ago
0 STARLINK-2622
1 48360U 21038H   26171.42519051  .00000281  00000-0  20820-4 0  9996
2 48360  53.1585 240.2072 0000884  92.4188 267.6914 15.31701588282814
Epoch: 2026-06-20T10:12Z
TLE epoch observation values (Epoch: 2026-06-20T10:12:16.460Z)
Latitude
-0.00005°
Longitude
178.49858°
Altitude
471.66 km
Speed
7.631 km/s
True Right ascension
16h 00m 49s
True Declination
0° 00' 00"
Sunlit
Object was in full shadow at epoch
Visualization orbit readout
Latitude
Unknown
Longitude
Unknown
Altitude
Unknown
Speed
Unknown
Apparent Right ascension
Unknown
Apparent Declination
Unknown
Sunlit
N/A
Visualization observer readout
Local Sidereal Time
21:25:18
Azimuth
Unknown
Elevation
Unknown
Doppler factor
Unknown
Orbital elements
Apogee altitude
471.598 km
Perigee altitude
470.387 km
Semi-major axis
6,849.129 km
Eccentricity
0.00009
Inclination
53.1585°
RAAN
240.2072°
Arg. of periapsis
92.4188°
True anomaly
267.68128°
Mean anomaly
267.6914°
Eccentric anomaly
267.68634°
Mean motion
3.82904 °/min
Orbital period
94.02 mins
BSTAR
0.00002082
Loading maneuver chart data...
Computing Atmospheric mass density...

Documentation

Showing up to 5 results
|